�������ċp�F�����K�X���j�^�v���󋵏��
Date,Time,�ċp�F�����K�X���j�^(cps),����,����(m/s)
2022/12/23,00:00,1.6,���k��,10.4
2022/12/23,00:10,1.5,��,10.5
2022/12/23,00:20,1.6,���k��,12.5
2022/12/23,00:30,1.5,���k��,7.1
2022/12/23,00:40,1.6,���k��,6.4
2022/12/23,00:50,1.6,���k��,4.2
2022/12/23,01:00,1.5,���k��,4.5
2022/12/23,01:10,1.5,���k��,2.5
2022/12/23,01:20,1.6,���k��,6.0
2022/12/23,01:30,1.5,���k��,6.4
2022/12/23,01:40,1.5,���k��,5.0
2022/12/23,01:50,1.6,���k��,4.7
2022/12/23,02:00,1.5,��,3.0
2022/12/23,02:10,1.5,�k��,2.5
2022/12/23,02:20,1.6,�k��,1.7
2022/12/23,02:30,1.6,���k��,1.3
2022/12/23,02:40,1.5,���쐼,3.9
2022/12/23,02:50,1.6,���쐼,2.6
2022/12/23,03:00,1.5,��,2.8
2022/12/23,03:10,1.6,���쐼,2.1
2022/12/23,03:20,1.6,���쐼,4.9
2022/12/23,03:30,1.6,��,5.6
2022/12/23,03:40,1.6,��,5.8
2022/12/23,03:50,1.6,���쐼,4.9
2022/12/23,04:00,1.5,���쐼,5.8
2022/12/23,04:10,1.5,�쐼,6.7
2022/12/23,04:20,1.5,��,5.3
2022/12/23,04:30,1.5,��,6.0
2022/12/23,04:40,1.6,��,4.9
2022/12/23,04:50,1.5,��,7.1
2022/12/23,05:00,1.6,���k��,3.4
2022/12/23,05:10,1.5,��,1.5
2022/12/23,05:20,1.5,�k��,1.3
2022/12/23,05:30,1.6,��,2.5
2022/12/23,05:40,1.4,��,3.0
2022/12/23,05:50,1.6,���k��,4.1
2022/12/23,06:00,1.5,���k��,3.3
2022/12/23,06:10,1.5,���k��,4.7
2022/12/23,06:20,1.5,���k��,7.5
2022/12/23,06:30,1.5,��,8.8
2022/12/23,06:40,1.5,���k��,9.6
2022/12/23,06:50,1.5,���k��,8.6
2022/12/23,07:00,1.5,���k��,11.1
2022/12/23,07:10,1.5,���k��,8.8
2022/12/23,07:20,1.5,��,7.7
2022/12/23,07:30,1.5,���k��,9.1
2022/12/23,07:40,1.6,���k��,10.0
2022/12/23,07:50,1.5,���k��,11.6
2022/12/23,08:00,1.5,���k��,9.7
2022/12/23,08:10,1.5,��,8.0
2022/12/23,08:20,1.5,���k��,9.1
2022/12/23,08:30,1.5,��,10.8
2022/12/23,08:40,1.6,��,9.3
2022/12/23,08:50,1.5,��,11.9
2022/12/23,09:00,1.6,��,10.8
2022/12/23,09:10,1.6,��,8.6
2022/12/23,09:20,1.6,��,10.1
2022/12/23,09:30,1.5,��,9.1
2022/12/23,09:40,1.6,��,5.3
2022/12/23,09:50,1.4,���k��,7.5
2022/12/23,10:00,1.5,���쐼,6.0
2022/12/23,10:10,1.6,��,7.8
2022/12/23,10:20,1.5,��,9.3
2022/12/23,10:30,1.5,��,10.2
2022/12/23,10:40,1.6,���쐼,10.4
2022/12/23,10:50,1.5,���쐼,8.3
2022/12/23,11:00,1.6,���쐼,8.6
2022/12/23,11:10,1.5,���쐼,10.4
2022/12/23,11:20,1.5,��,15.1
2022/12/23,11:30,1.6,���쐼,10.7
2022/12/23,11:40,1.4,���쐼,11.3
2022/12/23,11:50,1.6,���쐼,9.9
2022/12/23,12:00,1.5,���쐼,9.9
2022/12/23,12:10,1.6,���쐼,9.3
2022/12/23,12:20,1.5,���쐼,8.5
2022/12/23,12:30,1.6,�쐼,7.2
2022/12/23,12:40,1.6,���쐼,7.1
2022/12/23,12:50,1.5,�쐼,7.4
2022/12/23,13:00,1.6,�쐼,5.8
2022/12/23,13:10,1.5,���쐼,6.3
2022/12/23,13:20,1.6,���쐼,6.1
2022/12/23,13:30,1.6,��,7.1
2022/12/23,13:40,1.5,���쐼,6.4
2022/12/23,13:50,1.5,���쐼,6.4
2022/12/23,14:00,1.5,���k��,5.8
2022/12/23,14:10,1.5,���쐼,6.4
2022/12/23,14:20,1.6,���쐼,5.2
2022/12/23,14:30,1.5,���k��,6.9
2022/12/23,14:40,1.6,��,4.5
2022/12/23,14:50,1.6,���쐼,6.4
2022/12/23,15:00,1.5,���쐼,5.8
2022/12/23,15:10,1.5,���쐼,2.8
2022/12/23,15:20,1.5,��,3.8
2022/12/23,15:30,1.5,���쐼,5.0
2022/12/23,15:40,1.5,���쐼,4.1
2022/12/23,15:50,1.5,���쐼,3.8
2022/12/23,16:00,1.5,�쐼,3.9
2022/12/23,16:10,1.5,��쐼,3.3
2022/12/23,16:20,1.5,�쐼,4.4
2022/12/23,16:30,1.6,��쐼,1.9
2022/12/23,16:40,1.4,��,2.2
2022/12/23,16:50,1.5,���쐼,2.8
2022/12/23,17:00,1.6,���쐼,5.0
2022/12/23,17:10,1.6,���쐼,5.2
2022/12/23,17:20,1.5,�쐼,4.1
2022/12/23,17:30,1.5,���쐼,3.8
2022/12/23,17:40,1.6,���쐼,3.8
2022/12/23,17:50,1.5,�쐼,3.2
2022/12/23,18:00,1.5,�쐼,4.4
2022/12/23,18:10,1.5,�쐼,4.1
2022/12/23,18:20,1.6,��,7.1
2022/12/23,18:30,1.5,��,4.9
2022/12/23,18:40,1.5,���쐼,3.0
2022/12/23,18:50,1.5,��쐼,4.2
2022/12/23,19:00,1.5,�쐼,5.0
2022/12/23,19:10,1.6,�쐼,2.1
2022/12/23,19:20,1.6,��쐼,2.4
2022/12/23,19:30,1.6,�쐼,3.0
2022/12/23,19:40,1.6,���쐼,4.9
2022/12/23,19:50,1.5,���쐼,5.5
2022/12/23,20:00,1.5,���쐼,5.5
2022/12/23,20:10,1.6,���쐼,5.2
2022/12/23,20:20,1.6,���쐼,4.1
2022/12/23,20:30,1.5,��쐼,4.7
2022/12/23,20:40,1.6,�쐼,3.2
2022/12/23,20:50,1.6,�쐼,1.9
2022/12/23,21:00,1.6,���쐼,2.2
2022/12/23,21:10,1.6,��,3.2
2022/12/23,21:20,1.5,���k��,1.2
2022/12/23,21:30,1.5,-,CALM
2022/12/23,21:40,1.5,-,CALM
2022/12/23,21:50,1.6,�쐼,2.2
2022/12/23,22:00,1.5,��쐼,3.1
2022/12/23,22:10,1.4,�쐼,3.9
2022/12/23,22:20,1.6,�쐼,5.8
2022/12/23,22:30,1.5,�쐼,3.9
2022/12/23,22:40,1.5,��,4.4
2022/12/23,22:50,1.5,�쐼,4.1
2022/12/23,23:00,1.5,���쐼,3.5
2022/12/23,23:10,1.5,���쐼,2.5
2022/12/23,23:20,1.5,�쐼,2.7
2022/12/23,23:30,1.5,���쐼,2.6
2022/12/23,23:40,1.5,�쐼,4.4
2022/12/23,23:50,1.5,��쐼,3.9
